FW6223 Weather Reports


time (UTC)temp
C
wind
direction
speed
KPH
gust
KPH
rain 1hr
cm
rain 24hr
cm
rain mn
cm
humidity
%
barometer
mb
20260509022517 9 0.0 3.2 0.00 0.00 0.00 51 1008.5
20260509022047 10 0.0 0.0 0.00 0.00 0.00 49 1008.5
20260509021517 10 0.0 0.0 0.00 0.00 0.00 47 1008.4
20260509021017 10 0.0 0.0 0.00 0.00 0.00 46 1008.5
20260509020517 10 0.0 0.0 0.00 0.00 0.00 48 1008.4
20260509020017 10 0.0 0.0 0.00 0.00 0.00 44 1008.3
20260509015517 10 0.0 0.0 0.00 0.00 0.00 42 1008.2
20260509015017 10 0.0 0.0 0.00 0.00 0.00 40 1008.1
20260509014517 11 0.0 0.0 0.00 0.00 0.00 39 1008.2
20260509014017 11 0.0 0.0 0.00 0.00 0.00 37 1008.2
20260509013517 11 0.0 0.0 0.00 0.00 0.00 37 1008.2
20260509013017 11 0.0 0.0 0.00 0.00 0.00 36 1008.3
20260509012517 12 0.0 0.0 0.00 0.00 0.00 37 1008.3
20260509012017 12 0.0 0.0 0.00 0.00 0.00 35 1008.3
20260509011547 12 0.0 0.0 0.00 0.00 0.00 33 1008.3
20260509011017 13 0.0 0.0 0.00 0.00 0.00 34 1008.2
20260509010547 13 0.0 0.0 0.00 0.00 0.00 33 1008.2
20260509010017 14 0.0 0.0 0.00 0.00 0.00 31 1008.2
20260509005516 14 0.0 3.2 0.00 0.00 0.00 30 1008.2
20260509005017 15 293 3.2 4.8 0.00 0.00 0.00 29 1008.0
20260509004547 15 0.0 3.2 0.00 0.00 0.00 29 1008.0
20260509004017 15 315 3.2 9.7 0.00 0.00 0.00 28 1008.0
20260509003517 15 293 3.2 16.1 0.00 0.00 0.00 27 1008.0
20260509003017 15 293 3.2 17.7 0.00 0.00 0.00 27 1008.0
20260509002517 15 293 6.4 17.7 0.00 0.00 0.00 27 1008.1
20260509002017 16 293 3.2 4.8 0.00 0.00 0.00 28 1007.9
20260509001547 16 293 3.2 9.7 0.00 0.00 0.00 27 1008.0
20260509001017 16 0.0 8.0 0.00 0.00 0.00 27 1007.9
20260509000517 16 270 3.2 9.7 0.00 0.00 0.00 26 1007.9
20260509000016 17 270 3.2 9.7 0.00 0.00 0.00 26 1007.8
20260508235517 17 293 3.2 9.7 0.00 0.00 0.00 25 1007.9
20260508235016 18 293 3.2 16.1 0.00 0.00 0.00 25 1007.9
20260508234516 18 0.0 3.2 0.00 0.00 0.00 26 1008.0
20260508234017 18 293 3.2 12.9 0.00 0.00 0.00 25 1007.9
20260508233516 18 293 3.2 8.0 0.00 0.00 0.00 26 1007.8
20260508233047 18 293 3.2 8.0 0.00 0.00 0.00 25 1007.7
20260508232517 18 270 3.2 9.7 0.00 0.00 0.00 24 1007.7
20260508232047 18 315 3.2 9.7 0.00 0.00 0.00 25 1007.7
20260508231517 18 0.0 8.0 0.00 0.00 0.00 26 1007.7
20260508231016 18 270 3.2 17.7 0.00 0.00 0.00 26 1007.6
20260508230517 18 248 3.2 17.7 0.00 0.00 0.00 25 1007.6
20260508230017 18 0.0 16.1 0.00 0.00 0.00 27 1007.7
20260508225517 18 315 3.2 12.9 0.00 0.00 0.00 27 1007.6
20260508225016 18 0.0 4.8 0.00 0.00 0.00 28 1007.7
20260508224516 18 0.0 3.2 0.00 0.00 0.00 28 1007.7
20260508224117 18 248 3.2 9.7 0.00 0.00 0.00 27 1007.7
20260508223547 18 0.0 4.8 0.00 0.00 0.00 29 1007.7
20260508223017 18 0.0 4.8 0.00 0.00 0.00 26 1007.6
20260508222516 18 0.0 8.0 0.00 0.00 0.00 28 1007.6
20260508222016 17 0.0 8.0 0.00 0.00 0.00 30 1007.7
20260508221517 17 248 3.2 16.1 0.00 0.00 0.00 30 1007.7
20260508221017 18 0.0 4.8 0.00 0.00 0.00 29 1007.6
20260508220516 18 248 3.2 9.7 0.00 0.00 0.00 29 1007.7
20260508220016 18 0.0 4.8 0.00 0.00 0.00 30 1007.6
20260508215547 18 248 3.2 17.7 0.00 0.00 0.00 29 1007.6
20260508215016 18 248 3.2 4.8 0.00 0.00 0.00 33 1007.7
20260508214516 18 0.0 16.1 0.00 0.00 0.00 34 1007.6
20260508214017 18 248 3.2 12.9 0.00 0.00 0.00 32 1007.8
20260508213546 18 0.0 3.2 0.00 0.00 0.00 32 1007.8
20260508213016 18 248 3.2 12.9 0.00 0.00 0.00 33 1007.8
20260508212516 18 248 3.2 8.0 0.00 0.00 0.00 33 1007.9
20260508212046 18 270 3.2 12.9 0.00 0.00 0.00 32 1007.8
20260508211516 18 338 3.2 9.7 0.00 0.00 0.00 32 1007.8
20260508211016 18 248 3.2 16.1 0.00 0.00 0.00 31 1007.9
20260508210516 18 270 6.4 20.9 0.00 0.00 0.00 31 1008.0
20260508210016 18 248 3.2 9.7 0.00 0.00 0.00 31 1007.9
20260508205516 18 338 3.2 9.7 0.00 0.00 0.00 32 1008.0
20260508205016 18 0.0 4.8 0.00 0.00 0.00 33 1008.0
20260508204516 18 248 3.2 12.9 0.00 0.00 0.00 32 1008.1
20260508204016 18 248 3.2 12.9 0.00 0.00 0.00 33 1008.2
20260508203546 18 338 3.2 16.1 0.00 0.00 0.00 33 1008.2
20260508203016 18 0.0 3.2 0.00 0.00 0.00 32 1008.3
20260508202516 18 225 3.2 16.1 0.00 0.00 0.00 37 1008.4
20260508202046 18 248 3.2 12.9 0.00 0.00 0.00 34 1008.4
20260508201516 18 270 3.2 12.9 0.00 0.00 0.00 32 1008.5
20260508201016 18 248 3.2 16.1 0.00 0.00 0.00 33 1008.5
20260508200546 18 248 3.2 8.0 0.00 0.00 0.00 34 1008.7
20260508200046 18 315 6.4 17.7 0.00 0.00 0.00 32 1008.8
20260508195516 18 0.0 4.8 0.00 0.00 0.00 35 1008.8
20260508195016 18 315 3.2 8.0 0.00 0.00 0.00 32 1008.9
20260508194516 18 293 6.4 16.1 0.00 0.00 0.00 32 1009.1
20260508194016 18 248 3.2 4.8 0.00 0.00 0.00 32 1009.1
20260508193516 18 0.0 4.8 0.00 0.00 0.00 34 1009.1
20260508193047 18 293 3.2 8.0 0.00 0.00 0.00 34 1009.2
20260508192546 18 293 3.2 16.1 0.00 0.00 0.00 33 1009.4
20260508192016 18 0.0 4.8 0.00 0.00 0.00 35 1009.4
20260508191516 18 338 3.2 9.7 0.00 0.00 0.00 35 1009.5
20260508191016 17 0.0 4.8 0.00 0.00 0.00 34 1009.7
20260508190516 17 0.0 8.0 0.00 0.00 0.00 37 1009.7
20260508190046 17 315 6.4 16.1 0.00 0.00 0.00 33 1009.8
20260508185516 17 225 3.2 8.0 0.00 0.00 0.00 35 1009.8
20260508185016 17 248 3.2 8.0 0.00 0.00 0.00 35 1010.0
20260508184516 17 0.0 9.7 0.00 0.00 0.00 35 1009.9
20260508184016 17 248 3.2 9.7 0.00 0.00 0.00 35 1009.9
20260508183516 17 248 3.2 9.7 0.00 0.00 0.00 37 1010.0
20260508183016 17 248 3.2 8.0 0.00 0.00 0.00 36 1010.0
20260508182516 17 248 3.2 8.0 0.00 0.00 0.00 37 1010.1
20260508182046 17 248 3.2 9.7 0.00 0.00 0.00 39 1010.1
20260508181616 17 0.0 9.7 0.00 0.00 0.00 36 1010.3
20260508181016 17 248 3.2 12.9 0.00 0.00 0.00 36 1010.4
20260508180546 17 248 3.2 9.7 0.00 0.00 0.00 35 1010.6
20260508180046 17 0.0 8.0 0.00 0.00 0.00 33 1010.6
20260508175516 17 338 3.2 9.7 0.00 0.00 0.00 32 1010.7
20260508175046 17 315 3.2 12.9 0.00 0.00 0.00 33 1010.7
20260508174516 17 248 3.2 16.1 0.00 0.00 0.00 36 1010.8
20260508174016 17 248 3.2 16.1 0.00 0.00 0.00 34 1010.8
20260508173516 17 248 3.2 20.9 0.00 0.00 0.00 33 1010.9
20260508173016 17 293 6.4 16.1 0.00 0.00 0.00 32 1011.0
20260508172516 17 270 3.2 8.0 0.00 0.00 0.00 32 1011.1
20260508172016 17 248 3.2 17.7 0.00 0.00 0.00 34 1011.2
20260508171516 17 23 3.2 12.9 0.00 0.00 0.00 34 1011.2
20260508171016 17 113 3.2 8.0 0.00 0.00 0.00 35 1011.4
20260508170546 17 248 3.2 9.7 0.00 0.00 0.00 34 1011.5
20260508170016 17 0.0 4.8 0.00 0.00 0.00 34 1011.5
20260508165546 17 248 3.2 8.0 0.00 0.00 0.00 34 1011.5
20260508165046 17 248 3.2 9.7 0.00 0.00 0.00 35 1011.5
20260508164546 17 0 3.2 12.9 0.00 0.00 0.00 34 1011.5
20260508164046 17 0.0 9.7 0.00 0.00 0.00 35 1011.8
20260508163516 17 0.0 8.0 0.00 0.00 0.00 35 1011.7
20260508163016 16 248 3.2 9.7 0.00 0.00 0.00 35 1011.8
20260508162546 16 248 3.2 9.7 0.00 0.00 0.00 34 1011.8
20260508162116 17 248 3.2 8.0 0.00 0.00 0.00 35 1011.9
20260508161516 16 293 3.2 16.1 0.00 0.00 0.00 37 1011.8
20260508161016 16 248 6.4 12.9 0.00 0.00 0.00 40 1011.9
20260508160516 16 90 3.2 9.7 0.00 0.00 0.00 41 1011.9
20260508160016 16 0.0 4.8 0.00 0.00 0.00 40 1012.0
20260508155516 16 23 3.2 9.7 0.00 0.00 0.00 42 1012.1
20260508155016 16 0.0 8.0 0.00 0.00 0.00 42 1012.2
20260508154516 16 248 3.2 8.0 0.00 0.00 0.00 41 1012.3
20260508154146 15 68 3.2 8.0 0.00 0.00 0.00 46 1012.2
20260508153515 16 248 3.2 9.7 0.00 0.00 0.00 44 1012.2
20260508153016 15 248 3.2 8.0 0.00 0.00 0.00 43 1012.2
20260508152516 15 113 3.2 8.0 0.00 0.00 0.00 44 1012.2
20260508152016 15 135 3.2 8.0 0.00 0.00 0.00 46 1012.3
20260508151516 15 248 3.2 9.7 0.00 0.00 0.00 43 1012.3
20260508151016 15 90 3.2 8.0 0.00 0.00 0.00 45 1012.4
20260508150516 15 0.0 4.8 0.00 0.00 0.00 46 1012.4
20260508150016 15 45 3.2 9.7 0.00 0.00 0.00 42 1012.5
20260508145516 14 248 3.2 9.7 0.00 0.00 0.00 49 1012.5
20260508145016 15 0.0 3.2 0.00 0.00 0.00 47 1012.5
20260508144516 14 293 3.2 9.7 0.00 0.00 0.00 47 1012.5
20260508144016 14 0 3.2 9.7 0.00 0.00 0.00 51 1012.5
20260508143516 13 0.0 4.8 0.00 0.00 0.00 53 1012.6
20260508143047 13 68 3.2 8.0 0.00 0.00 0.00 49 1012.6
20260508142516 13 0.0 3.2 0.00 0.00 0.00 51 1012.7
20260508142016 13 0.0 4.8 0.00 0.00 0.00 52 1012.7
20260508141516 13 135 3.2 8.0 0.00 0.00 0.00 53 1012.8
20260508141015 13 0.0 4.8 0.00 0.00 0.00 52 1012.8
20260508140546 13 0.0 4.8 0.00 0.00 0.00 57 1012.8
20260508140015 13 0.0 3.2 0.00 0.00 0.00 58 1012.9
20260508135546 12 0.0 4.8 0.00 0.00 0.00 58 1013.0
20260508135016 12 0.0 3.2 0.00 0.00 0.00 58 1013.0
20260508134516 11 0.0 4.8 0.00 0.00 0.00 59 1012.9
20260508134015 11 0.0 3.2 0.00 0.00 0.00 60 1013.0
20260508133515 10 0.0 3.2 0.00 0.00 0.00 62 1013.0
20260508133015 10 135 3.2 8.0 0.00 0.00 0.00 61 1013.1
20260508132516 10 113 3.2 8.0 0.00 0.00 0.00 62 1013.1
20260508132016 10 0.0 3.2 0.00 0.00 0.00 64 1013.2
20260508131516 9 0.0 4.8 0.00 0.00 0.00 65 1013.2
20260508131015 8 0.0 4.8 0.00 0.00 0.00 65 1013.2
20260508130515 8 0.0 3.2 0.00 0.00 0.00 66 1013.2
20260508130016 8 0.0 3.2 0.00 0.00 0.00 67 1013.1
20260508125516 7 0.0 3.2 0.00 0.00 0.00 69 1013.1
20260508125046 7 0.0 3.2 0.00 0.00 0.00 70 1013.1
20260508124546 6 0.0 3.2 0.00 0.00 0.00 72 1013.1
20260508124046 6 0.0 3.2 0.00 0.00 0.00 76 1013.0
20260508123516 5 0.0 3.2 0.00 0.00 0.00 82 1013.0
20260508123016 5 0.0 0.0 0.00 0.00 0.00 87 1013.0
20260508122515 4 0.0 3.2 0.00 0.00 0.00 90 1012.9
20260508122016 4 0.0 0.0 0.00 0.00 0.00 92 1012.9
20260508121516 3 0.0 0.0 0.00 0.00 0.00 92 1012.8
20260508121015 3 0.0 0.0 0.00 0.00 0.00 92 1012.8
20260508120515 3 0.0 0.0 0.00 0.00 0.00 92 1012.7
20260508120015 3 0.0 0.0 0.00 0.00 0.00 92 1012.7
20260508115515 2 0.0 0.0 0.00 0.00 0.00 91 1012.7
20260508115015 2 0.0 0.0 0.00 0.00 0.00 91 1012.7
20260508114515 2 0.0 0.0 0.00 0.00 0.00 91 1012.6
20260508114015 2 0.0 0.0 0.00 0.00 0.00 91 1012.6
20260508113515 2 0.0 0.0 0.00 0.00 0.00 91 1012.7
20260508113015 1 0.0 0.0 0.00 0.00 0.00 91 1012.5
20260508112515 1 0.0 0.0 0.00 0.00 0.00 91 1012.6
20260508112016 1 0.0 0.0 0.00 0.00 0.00 91 1012.5
20260508111516 1 0.0 0.0 0.00 0.00 0.00 91 1012.5
20260508111015 1 0.0 0.0 0.00 0.00 0.00 91 1012.3
20260508110515 1 0.0 0.0 0.00 0.00 0.00 90 1012.3
20260508110016 1 0.0 0.0 0.00 0.00 0.00 90 1012.2
20260508105515 1 0.0 0.0 0.00 0.00 0.00 90 1012.1
20260508105015 1 0.0 0.0 0.00 0.00 0.00 90 1012.1
20260508104515 1 0.0 0.0 0.00 0.00 0.00 89 1012.2
20260508104015 1 0.0 0.0 0.00 0.00 0.00 89 1012.1
20260508103515 1 0.0 0.0 0.00 0.00 0.00 88 1012.1
20260508103015 1 0.0 0.0 0.00 0.00 0.00 88 1012.0
20260508102515 1 0.0 0.0 0.00 0.00 0.00 88 1012.0
20260508102015 1 0.0 0.0 0.00 0.00 0.00 88 1012.0
20260508101515 1 0.0 0.0 0.00 0.00 0.00 88 1012.0
20260508101015 1 0.0 0.0 0.00 0.00 0.00 88 1011.9
20260508100515 1 0.0 0.0 0.00 0.00 0.00 88 1011.8
20260508100045 1 0.0 0.0 0.00 0.00 0.00 87 1011.9
20260508095545 1 0.0 0.0 0.00 0.00 0.00 87 1011.9
20260508095015 1 0.0 0.0 0.00 0.00 0.00 87 1011.9
20260508094517 1 0.0 0.0 0.00 0.00 0.00 87 1012.0
20260508094017 1 0.0 0.0 0.00 0.00 0.00 86 1012.0
20260508093547 2 0.0 0.0 0.00 0.00 0.00 87 1012.0
20260508093017 2 0.0 0.0 0.00 0.00 0.00 87 1012.0
20260508092517 2 0.0 0.0 0.00 0.00 0.00 87 1011.9
20260508092047 2 0.0 0.0 0.00 0.00 0.00 87 1012.0
20260508091517 2 0.0 0.0 0.00 0.00 0.00 86 1012.0
20260508091017 2 0.0 0.0 0.00 0.00 0.00 86 1012.0
20260508090517 2 0.0 0.0 0.00 0.00 0.00 85 1012.0
20260508090017 2 0.0 0.0 0.00 0.00 0.00 85 1012.0
20260508085517 2 0.0 0.0 0.00 0.00 0.00 85 1012.0
20260508085017 2 0.0 0.0 0.00 0.00 0.00 85 1012.0
20260508084517 2 0.0 0.0 0.00 0.00 0.00 85 1012.1
20260508084017 2 0.0 0.0 0.00 0.00 0.00 85 1012.2
20260508083547 3 0.0 0.0 0.00 0.00 0.00 84 1012.2
20260508083047 3 0.0 0.0 0.00 0.00 0.00 84 1012.2
20260508082547 3 0.0 0.0 0.00 0.00 0.00 84 1012.1
20260508082017 3 0.0 0.0 0.00 0.00 0.00 83 1012.2
20260508081517 3 0.0 0.0 0.00 0.00 0.00 83 1012.2
20260508081017 3 0.0 0.0 0.00 0.00 0.00 83 1012.3
20260508080547 3 0.0 0.0 0.00 0.00 0.00 83 1012.3
20260508080017 3 0.0 0.0 0.00 0.00 0.00 82 1012.3
20260508075517 4 0.0 0.0 0.00 0.00 0.00 83 1012.4
20260508075017 4 0.0 0.0 0.00 0.00 0.00 83 1012.5
20260508074547 4 0.0 0.0 0.00 0.00 0.00 83 1012.4
20260508074017 4 0.0 0.0 0.00 0.00 0.00 83 1012.4
20260508073517 4 0.0 0.0 0.00 0.00 0.00 82 1012.4
20260508073047 4 0.0 0.0 0.00 0.00 0.00 82 1012.5
20260508072517 4 0.0 0.0 0.00 0.00 0.00 82 1012.5
20260508072047 4 0.0 0.0 0.00 0.00 0.00 82 1012.5
20260508071547 4 0.0 3.2 0.00 0.00 0.00 81 1012.5
20260508071017 4 0.0 0.0 0.00 0.00 0.00 80 1012.5
20260508070547 4 0.0 0.0 0.00 0.00 0.00 81 1012.4
20260508070017 5 0.0 0.0 0.00 0.00 0.00 80 1012.6
20260508065517 5 0.0 0.0 0.00 0.00 0.00 78 1012.6
20260508065047 5 0.0 0.0 0.00 0.00 0.00 78 1012.6
20260508064547 5 0.0 0.0 0.00 0.00 0.00 78 1012.7
20260508064017 5 0.0 0.0 0.00 0.00 0.00 77 1012.6
20260508063517 5 0.0 0.0 0.00 0.00 0.00 75 1012.8
20260508063017 5 0.0 0.0 0.00 0.00 0.00 75 1012.8
20260508062517 5 0.0 0.0 0.00 0.00 0.00 75 1012.9
20260508062017 6 0.0 0.0 0.00 0.00 0.00 76 1012.9
20260508061517 6 0.0 0.0 0.00 0.00 0.00 76 1013.0
20260508061017 6 0.0 0.0 0.00 0.00 0.00 73 1012.9
20260508060517 6 0.0 0.0 0.00 0.00 0.00 71 1012.9
20260508060017 6 0.0 0.0 0.00 0.00 0.00 71 1012.9
20260508055517 6 0.0 0.0 0.00 0.00 0.00 71 1013.0
20260508055047 6 0.0 0.0 0.00 0.00 0.00 71 1012.9
20260508054517 6 0.0 0.0 0.00 0.00 0.00 71 1013.0
20260508054017 6 0.0 0.0 0.00 0.00 0.00 71 1012.9
20260508053617 6 0.0 0.0 0.00 0.00 0.00 72 1013.0
20260508053016 6 0.0 0.0 0.00 0.00 0.00 72 1012.9
20260508052547 6 0.0 0.0 0.00 0.00 0.00 75 1012.8
20260508052016 6 0.0 0.0 0.00 0.00 0.00 75 1012.8
20260508051517 6 0.0 0.0 0.00 0.00 0.00 74 1012.8
20260508051047 6 0.0 0.0 0.00 0.00 0.00 71 1012.7
20260508050547 6 0.0 0.0 0.00 0.00 0.00 71 1012.8
20260508050016 6 0.0 0.0 0.00 0.00 0.00 72 1012.9
20260508045547 6 0.0 0.0 0.00 0.00 0.00 72 1012.8
20260508045017 6 0.0 0.0 0.00 0.00 0.00 75 1012.8
20260508044517 6 0.0 0.0 0.00 0.00 0.00 74 1012.8
20260508044017 6 0.0 0.0 0.00 0.00 0.00 74 1012.7
20260508043517 6 0.0 0.0 0.00 0.00 0.00 74 1012.8
20260508043047 7 0.0 3.2 0.00 0.00 0.00 75 1012.7
20260508042547 7 0.0 3.2 0.00 0.00 0.00 75 1012.6
20260508042017 7 0.0 3.2 0.00 0.00 0.00 75 1012.6
20260508041516 7 0.0 0.0 0.00 0.00 0.00 74 1012.7
20260508041117 7 0.0 0.0 0.00 0.00 0.00 74 1012.6
20260508040517 7 0.0 0.0 0.00 0.00 0.00 73 1012.7
20260508040016 8 0.0 0.0 0.00 0.00 0.00 73 1012.8
20260508035517 8 0.0 0.0 0.00 0.00 0.00 72 1012.7
20260508035017 8 0.0 0.0 0.00 0.00 0.00 72 1012.7
20260508034517 8 0.0 0.0 0.00 0.00 0.00 72 1012.6
20260508034017 8 0.0 0.0 0.00 0.00 0.00 72 1012.8
20260508033517 8 0.0 0.0 0.00 0.00 0.00 73 1012.7
20260508033017 8 0.0 0.0 0.00 0.00 0.00 73 1012.7
20260508032517 8 0.0 0.0 0.00 0.00 0.00 72 1012.7
20260508032017 8 0.0 0.0 0.00 0.00 0.00 71 1012.6
20260508031517 8 0.0 0.0 0.00 0.00 0.00 72 1012.6
20260508031017 8 0.0 0.0 0.00 0.00 0.00 71 1012.5
20260508030517 8 0.0 0.0 0.00 0.00 0.00 70 1012.6
20260508030017 8 0.0 0.0 0.00 0.00 0.00 72 1012.7
20260508025517 8 0.0 0.0 0.00 0.00 0.00 71 1012.7
20260508025047 8 0.0 0.0 0.00 0.00 0.00 71 1012.8
20260508024517 8 0.0 0.0 0.00 0.00 0.00 71 1012.8
20260508024047 8 0.0 0.0 0.00 0.00 0.00 71 1012.7
20260508023517 8 0.0 0.0 0.00 0.00 0.00 70 1012.6
20260508023017 8 0.0 0.0 0.00 0.00 0.00 70 1012.5
20260508022547 8 0.0 0.0 0.00 0.00 0.00 69 1012.5